#timestamp,LO_Frequency,Hit,StdDev 
1605898815.9,286046996.5,N
1605898835.7,286046999.2,N
1605898855.6,286046996.8,N
1605898875.4,286046997.8,N
1605898895.2,286046998.0,N
1605898915.1,286046997.6,N
1605898916.0,286046997.6,N
1605898935.8,286046997.2,N
1605898955.6,286046997.5,N
1605898975.5,286046997.4,N
1605898995.3,286046997.6,N
1605899015.1,286046997.2,N
1605899035.9,286046995.1,Y
1605899055.7,286046999.5,P
1605899075.5,286047001.0,N
1605899095.4,286046998.4,N
1605899115.2,286046999.1,N
1605899135.0,286046999.5,N
1605899135.9,286046999.5,N
1605899155.8,286046999.2,N
1605899175.6,286046999.1,N
1605899195.4,286046998.1,N
1605899215.3,286046997.3,Y
1605899235.1,286046998.3,P
1605899236.0,286046998.3,P
1605899255.8,286046998.5,P
1605899275.7,286046998.1,Y
1605899295.5,286047000.5,P
1605899315.3,286047000.2,N
1605899335.2,286047000.2,N
1605899355.9,286047000.0,N
1605899375.7,286047000.6,N
1605899395.6,286047000.1,N
1605899415.4,286047000.3,N
1605899435.2,286046999.8,N
1605899455.1,286047001.0,N
1605899456.0,286047001.0,N
1605899475.8,286047000.6,N
1605899495.6,286046999.0,N
1605899515.5,286046998.7,N
1605899535.3,286046998.6,N
1605899555.1,286046998.5,N
1605899575.9,286046998.9,N
1605899595.7,286046998.7,N
1605899615.5,286046998.7,N
1605899635.4,286047001.0,N
1605899655.2,286046999.4,N
1605899675.0,286046998.4,N
1605899675.9,286046998.4,N
1605899695.8,286046999.1,N
1605899715.6,286046999.6,N
1605899735.4,286046999.2,N
1605899755.3,286046999.2,N
1605899775.1,286046998.8,N
1605899776.0,286046998.8,N
1605899795.8,286046996.6,Y
1605899815.7,286046997.0,P
1605899835.5,286046999.2,N
1605899855.3,286046998.9,N
1605899875.2,286046997.0,Y
1605899895.9,286046998.6,P
1605899915.7,286046998.6,P
1605899935.6,286046999.6,P
1605899955.4,286046998.8,N
1605899975.2,286046999.3,N
1605899995.1,286046998.9,N
1605899996.0,286046998.9,Y
1605900015.8,286047001.0,P
1605900035.6,286047001.0,N
1605900055.5,286047000.9,N
1605900075.3,286046999.9,N
1605900095.1,286046999.7,N
1605900115.9,286047000.2,N
1605900135.7,286047000.3,N
1605900155.5,286046999.7,N
1605900175.4,286047000.9,N
1605900195.2,286047001.0,N
1605900215.0,286047000.0,N
1605900215.9,286047000.0,N
1605900235.8,286047000.0,N
1605900255.6,286046998.4,N
1605900275.4,286046998.2,N
1605900295.3,286047000.3,N
1605900315.1,286046998.2,N
1605900316.0,286046998.2,N
1605900335.8,286047000.0,N
1605900355.7,286047000.2,N
1605900375.5,286047001.0,N
1605900395.3,286046999.7,N
1605900415.2,286047000.3,N
1605900435.9,286047002.7,N
1605900455.7,286047002.8,N
1605900475.6,286047002.7,N
1605900495.4,286047000.1,N
1605900515.2,286047001.0,N
1605900535.1,286047000.8,N
1605900536.0,286047000.8,N
1605900555.8,286047000.2,N
1605900575.6,286047002.3,N
1605900595.5,286047000.3,N
1605900615.3,286047000.9,N
1605900635.1,286047000.2,N
1605900655.9,286047000.5,N
1605900675.7,286047000.2,N
1605900695.5,286047000.3,N
1605900715.4,286046999.9,N
1605900735.2,286047000.4,N
1605900755.0,286047000.5,N
1605900755.9,286047000.5,N
1605900805.8,286047002.1,E
1605900815.7,286047000.7,N
1605900835.5,286046998.2,P
1605900855.4,286047000.9,N
1605900875.2,286047000.9,N
1605900895.0,286047001.2,N
1605900895.9,286047001.2,N
1605900915.8,286046998.2,N
1605900935.6,286046999.4,N
1605900955.4,286046998.1,N
1605900975.3,286046998.7,N
1605900995.1,286046998.8,N
1605901015.8,286047001.2,N
1605901035.7,286046999.9,N
1605901055.5,286047002.7,N
1605901075.3,286047000.6,N
1605901095.2,286047002.7,N
1605901115.9,286047002.7,N
1605901135.7,286047002.8,N
1605901155.6,286047000.1,N
1605901175.4,286047002.1,N
1605901195.2,286047002.1,N
1605901215.1,286047003.6,N
1605901216.0,286047003.6,N
1605901235.8,286047003.8,N
1605901255.6,286047001.7,N
1605901275.5,286047003.1,N
1605901295.3,286047002.1,N
1605901315.1,286047002.7,N
1605901335.9,286047001.9,N
1605901355.7,286047004.3,N
1605901375.5,286047003.2,N
1605901395.4,286047004.3,N
1605901415.2,286047004.2,N
1605901435.0,286047003.1,N
1605901435.9,286047003.1,N
1605901455.8,286047003.8,N
1605901475.6,286047003.5,N
1605901495.4,286047003.1,N
1605901515.3,286047003.4,N
1605901535.1,286047002.9,N
1605901536.0,286047002.9,N
1605901555.8,286047005.4,Y
1605901575.7,286047001.3,P
1605901595.5,286047001.5,N
1605901615.3,286047004.1,P
1605901635.2,286047004.2,Y
1605901655.9,286047002.4,P
1605901675.7,286046999.7,P
1605901695.6,286046999.8,N
1605901715.4,286047002.4,N
1605901735.2,286047000.0,N
1605901755.1,286047002.8,N
1605901756.0,286047002.8,N
1605901775.8,286047003.9,N
1605901795.6,286047001.8,N
1605901815.5,286047003.4,N
1605901835.3,286047003.8,N
1605901855.1,286047005.6,Y
1605901875.9,286047001.6,P
1605901895.7,286047001.4,P
1605901915.5,286047003.9,P
1605901935.4,286047001.6,N
1605901955.2,286047003.9,Y
1605901975.0,286047000.0,P
1605901975.9,286047000.0,N
1605901995.8,286047000.4,N
1605902015.6,286047000.3,N
1605902035.4,286046999.9,N
1605902055.3,286047000.0,N
1605902075.1,286047002.3,Y
1605902095.8,286047002.7,P
1605902115.7,286047004.4,P
1605902135.5,286047001.9,N
1605902155.3,286047003.7,N
1605902175.2,286047003.7,N
1605902195.0,286047004.0,N
1605902195.9,286047004.0,Y
1605902215.7,286046999.7,P
1605902235.6,286047001.9,N
1605902255.4,286047002.1,N
1605902275.2,286047002.3,N
1605902295.1,286047002.5,N
1605902296.0,286047002.5,N
1605902315.8,286047004.4,Y
1605902335.6,286047000.7,P
1605902355.5,286047000.5,N
1605902375.3,286047002.3,P
1605902395.1,286047002.8,Y
